Find Starlink 33853

NORAD ID: 63684 Int'l Des: 2025-085 Owner: SPXS Country: US Constellation: starlink operational
LEOCIRCULAR

現在のビュー

3D地球を読み込み中...

About Starlink 33853

Starlink 33853 (NORAD 63684) is a starlink constellation satellite (v2 mini) launched Apr 28, 2025 by SPXS of US. It operates in LEO, CIRCULAR orbit with a mass of 575.00 kg.

次回通過

Passes for default location (London). Set your location on the main map for personalized predictions.

高度履歴

Loading altitude history...

軌道要素

1 63684U 25085W 26263.60605375 .00007879 00000-0 29543-3 0 9995
2 63684 43.0054 9.8020 0002246 282.8944 77.1657 15.27594128 78681
Epoch: Sep 20, 2026 • Age: 17 hours

現在のステータス

高度 494.8 km
遠地点 / 近地点 N/A
速度 7.62 km/s
衛星直下点 -42.98°S, 158.17°E
打ち上げ日 Apr 28, 2025
運用期間 1.3 years
タイプ internet

技術仕様

分類 Payload
質量 575.00 kg
乾燥質量 530.00 kg
長さ 0.30 m
スパン 29.00 m
形状 ? Box + pan
製造者 SPXS
バスタイプ Starlink V2MO
フェーズステータス In Orbit
所有者/国 SPXS/US

Most Searched